Weather in Upsha

Russia / Mari El Republic     56°52′00″N   47°43′55″E
temp.,
°C
wind,
m/s
gust,
m/s
humid.,
%
clouds,
%
prec.,
mm/h
press.,
hPa
HPBL,
m
10 august, wed
wed1000:00+15ne119299 1.0 101814
03:00+15wsw229495 1.0 101832
06:00+17wnw1494100 0.0 1019145
09:00+21wnw3473100 0.0 1019760
12:00+23nw446220 0.0 10191175
15:00+21nw346777 0.0 1019789
18:00+20nnw246898 0.0 1019305
21:00+16nne387350 0.0 1021321
11 august, thu
thu1100:00+13nne268292 0.0 1022138
03:00+11nne22875 0.0 102334
06:00+13nnw127756 0.0 1024113
09:00+18nnw34570 0.0 1025873
12:00+21nnw23450 0.0 10241432
15:00+22nnw34441 0.0 10241607
18:00+20wnw22620 0.0 102443
21:00+15sw11710 0.0 102411
12 august, fri
fri1200:00+13sw22755 0.0 102511
03:00+13wsw2381100 0.0 102446
06:00+15wsw247871 0.0 1024120
09:00+20w355797 0.0 1024555
12:00+23w4543100 0.0 10231630
15:00+24w453992 0.0 10221636
18:00+21wsw26580 0.0 1021158
21:00+16w35745 0.0 102289
13 august, sat
sat1300:00+15wsw38770 0.0 1021136
03:00+14w36795 0.0 1022114
06:00+15wnw26789 0.0 1022155
09:00+22nw346191 0.0 1022594
12:00+25nw45455 0.0 10221505
15:00+25nw46425 0.0 10221774
18:00+22nnw25615 0.0 1022132
21:00+16ne227320 0.0 102326
14 august, sun
sun1400:00+14ne22756 0.0 102411
03:00+13ne118115 0.0 102410
06:00+15e11765 0.0 102555
09:00+21se115448 0.0 1025569
12:00+25e114049 0.0 10241458
15:00+25nne1140100 0.0 10231555
18:00+22e0160100 0.0 102311
21:00+17se0168100 0.0 102311